TANYUSHA 1 (42911 NORAD) Tracking and Keplerian Element Data

This shows tracking and keplerian element data for the satellite.

Feedback or suggestion? Click here.




ElementValue
Catalog42911
NameTANYUSHA 1
Epoch Orbit7605
Epoch Day350.87733522
Epoch Year2018
RAAN153.7525
Inclination51.6348
Eccentricity0.0004989
Argument of Perigee178.2314
Mean Anonmoly295.1591
Mean Motion15.73617817
Decay Rate0.0002738
L11 42911U 98067NA 18350.87733522 .00027380 00000-0 19494-3 0 9991
L22 42911 51.6348 153.7525 0004989 178.2314 295.1591 15.73617817 76056

Live tracking and technical data element details for TANYUSHA 1 (NORAD 42911). TANYUSHA 1 can be tracked NOW for your location showing map with azimuth and elevation plus other details from your city location.

Track the satellite on the map from your city or location and see movement details for azimuth, elevation, latitude, longitude, range, height, and movement on the map or in text.







IsCatalogInMostPopularTable: catalog: 42911, numindb: 164
Update: records affected: 1



GetName: 42911 TANYUSHA 1

Hit Count: updated at: Tue, 18 Dec 2018 21:30:04 GMT